This is the latest recevied weather packets stored in our database for station/object OE-11149. If no packets are shown the sender has not sent any weather packets the latest 10 day(s).
| Time | Temp. | Humidity | Pressure | Rain* | Wind** | Luminosity | Snow |
|---|---|---|---|---|---|---|---|
| 1787959519 | 12.78° C | 93% | 852.9 hPa | 0 mm | - | 0 W/m² | - |
| 1787958920 | 12.78° C | 93% | 853.1 hPa | 0 mm | - | 0 W/m² | - |
| 1787958320 | 12.78° C | 92% | 853 hPa | 0 mm | - | 0 W/m² | - |
| 1787957720 | 13.33° C | 95% | 853.1 hPa | 0 mm | - | 0 W/m² | - |
| 1787956893 | 13.33° C | 96% | 853.1 hPa | 0 mm | - | 0 W/m² | - |
| 1787956520 | 13.33° C | 92% | 852.8 hPa | 0 mm | - | 0 W/m² | - |
| 1787955920 | 13.33° C | 97% | 853 hPa | 0 mm | - | 0 W/m² | - |
| 1787955093 | 13.33° C | 98% | 852.7 hPa | 0 mm | - | 0 W/m² | - |
| 1787954719 | 13.33° C | 99% | 852.7 hPa | 0 mm | - | 0 W/m² | - |
| 1787954120 | 13.33° C | 98% | 852.8 hPa | 0 mm | - | 0 W/m² | - |
| 1787953293 | 13.89° C | 97% | 852.5 hPa | 0 mm | - | 0 W/m² | - |
| 1787952920 | 13.89° C | 95% | 852.2 hPa | 0 mm | - | 0 W/m² | - |
| 1787952320 | 13.89° C | 94% | 852 hPa | 0 mm | - | 0 W/m² | - |
| 1787951493 | 14.44° C | 91% | 851.8 hPa | 0 mm | - | 0 W/m² | - |
| 1787951120 | 14.44° C | 90% | 851.6 hPa | 0 mm | - | 0 W/m² | - |
| 1787950520 | 14.44° C | 91% | 851.9 hPa | 0 mm | - | 0 W/m² | - |
| 1787949694 | 13.89° C | 94% | 851.1 hPa | 0 mm | - | 0 W/m² | - |
| 1787949320 | 14.44° C | 94% | 851.3 hPa | 0 mm | - | 0 W/m² | - |
| 1787948720 | 14.44° C | 95% | 851.2 hPa | 0 mm | - | 0 W/m² | - |
| 1787947893 | 14.44° C | 94% | 851.6 hPa | 0 mm | - | 0 W/m² | - |
| 1787947519 | 14.44° C | 95% | 851.3 hPa | 0 mm | - | 0 W/m² | - |
| 1787946920 | 14.44° C | 94% | 851.6 hPa | 0 mm | - | 0 W/m² | - |
| 1787946093 | 14.44° C | 93% | 851.8 hPa | 0 mm | - | 0 W/m² | - |
| 1787945720 | 14.44° C | 93% | 851.3 hPa | 0 mm | - | 0 W/m² | - |
| 1787945119 | 14.44° C | 91% | 851.5 hPa | 0 mm | - | 0 W/m² | - |
* Rain latest hour (hover to see other rain measurements)
** Current wind speed in m/s (hover to see current wind gust speed)